This is the latest recevied weather packets stored in our database for station/object KE8WMS. If no packets are shown the sender has not sent any weather packets the latest 10 day(s).
| Time | Temp. | Humidity | Pressure | Rain* | Wind** | Luminosity | Snow |
|---|---|---|---|---|---|---|---|
| 1778173905 | 13.33° C | 48% | 1009.1 hPa | 0 mm | - | 788 W/m² | - |
| 1778173602 | 13.89° C | 50% | 1009.1 hPa | 0 mm | - | 784 W/m² | - |
| 1778173299 | 14.44° C | 51% | 1009.2 hPa | 0 mm | - | 762 W/m² | - |
| 1778172994 | 13.33° C | 49% | 1008.8 hPa | 0 mm | - | 784 W/m² | - |
| 1778172691 | 13.89° C | 49% | 1009 hPa | 0 mm | - | 776 W/m² | - |
| 1778172387 | 13.89° C | 49% | 1009 hPa | 0 mm | - | 779 W/m² | - |
| 1778172084 | 13.33° C | 49% | 1009.1 hPa | 0 mm | - | 784 W/m² | - |
| 1778171781 | 13.89° C | 50% | 1009.2 hPa | 0 mm | - | 785 W/m² | - |
| 1778171479 | 13.33° C | 50% | 1009.5 hPa | 0 mm | - | 760 W/m² | - |
| 1778171174 | 13.33° C | 48% | 1009.6 hPa | 0 mm | - | 786 W/m² | - |
| 1778170871 | 13.33° C | 52% | 1009.3 hPa | 0 mm | - | 774 W/m² | - |
| 1778170567 | 13.33° C | 55% | 1009.5 hPa | 0 mm | - | 780 W/m² | - |
| 1778170264 | 13.33° C | 54% | 1009.6 hPa | 0 mm | - | 761 W/m² | - |
| 1778169960 | 13.89° C | 51% | 1009.9 hPa | 0 mm | - | 754 W/m² | - |
| 1778169657 | 13.33° C | 53% | 1009.7 hPa | 0 mm | - | 778 W/m² | - |
| 1778169352 | 13.33° C | 55% | 1009.7 hPa | 0 mm | - | 782 W/m² | - |
| 1778169049 | 13.33° C | 57% | 1009.7 hPa | 0 mm | - | 757 W/m² | - |
| 1778168746 | 12.78° C | 58% | 1009.6 hPa | 0 mm | - | 729 W/m² | - |
| 1778168443 | 13.89° C | 56% | 1009.6 hPa | 0 mm | - | 713 W/m² | - |
| 1778168140 | 13.89° C | 54% | 1009.7 hPa | 0 mm | - | 717 W/m² | - |
| 1778167836 | 12.78° C | 55% | 1009.6 hPa | 0 mm | - | 440 W/m² | - |
| 1778167532 | 12.78° C | 57% | 1009.7 hPa | 0 mm | - | 727 W/m² | - |
| 1778167229 | 12.78° C | 59% | 1009.8 hPa | 0 mm | - | 689 W/m² | - |
| 1778166925 | 12.22° C | 60% | 1009.9 hPa | 0 mm | - | 702 W/m² | - |
| 1778166622 | 11.67° C | 60% | 1009.6 hPa | 0 mm | - | 465 W/m² | - |
* Rain latest hour (hover to see other rain measurements)
** Current wind speed in m/s (hover to see current wind gust speed)